STARLINK-35264, 65900

Orbit data source: Space-Track

STARLINK-35264, 65900 is a payload satellite owned by SpaceX/Seattle (US) in LEO that was launched on Tue, 07 Oct 2025 UTC via an FALCON 9 launch vehicle from the Air Force Eastern Test Range (AFETR). Payload-class satellites include a variety of spacecraft equipped with specific instruments for various scientific and technological missions. These include communications satellites like Starlink; space stations such as the ISS; scientific satellites like the Hubble; Earth observation satellites from companies like Planet Labs, Umbra, and HawkEye 360; GPS; miniature CubeSats for education and research; and military/defense satellites.

Loading next visibility...
Identifier
65900, 2025-224U
Orbit
LEO
Country
Flag of USUS
Related business
Manufacturer
SpaceX/Seattle
Mission
Operational spacecraft
Bus & Motor
STARLINK V2MO, Unknown motor
Mass
575 kg wet, ~530 kg dry
Launch date (UTC)
2025-10-07 (2 months ago)
Launch vehicle
FALCON 9
Launch site
Air Force Eastern Test Range (AFETR)
Object type
Payload
Rocket body
Debris
Shape & HBR
Unknown shape, 17.7 m
Radar Cross Section
RCS unknown

Expand to show TLE details & history
Last TLE update: 19 hours ago

TLE from 19 hours ago
0 STARLINK-35264
1 65900U 25224U   25340.58373731  .00051986  00000-0  17530-2 0  9993
2 65900  53.1609  83.5013 0000981 105.4106 254.7004 15.30238439 10619
Epoch: 2025-12-06T14:00Z
TLE epoch observation values (Epoch: 2025-12-06T14:00:34.903Z)
Latitude
0.00004°
Longitude
157.74651°
Altitude
476.178 km
Speed
7.629 km/s
True Right ascension
05h 34m 00s
True Declination
0° 00' 00"
Sunlit
Object was in full shadow at epoch
Visualization orbit readout
Latitude
Unknown
Longitude
Unknown
Altitude
Unknown
Speed
Unknown
Apparent Right ascension
Unknown
Apparent Declination
Unknown
Sunlit
N/A
Visualization observer readout
Local Sidereal Time
07:21:27
Azimuth
Unknown
Elevation
Unknown
Doppler factor
Unknown
Orbital elements
Apogee altitude
476.029 km
Perigee altitude
474.684 km
Semi-major axis
6,853.494 km
Eccentricity
0.0001
Inclination
53.1609°
RAAN
83.5013°
Arg. of periapsis
105.4106°
True anomaly
254.68956°
Mean anomaly
254.7004°
Eccentric anomaly
254.69498°
Mean motion
3.82539 °/min
Orbital period
94.11 mins
BSTAR
0.001753
Loading maneuver chart data...
Computing Atmospheric mass density...
Loading historical data...
Loading historical data...
Loading historical data...
Loading historical data...
Loading historical data...
Loading historical data...
Loading historical data...

Documentation

Showing up to 5 results
|